Погода в Шаралдае

Россия / Республика Бурятия     51°01′32″N   107°38′29″E
темп.,
°C
ветер,
м/с
пор.,
м/с
влажн.,
%
обл.,
%
осадки,
мм/ч
давл.,
гПа
погр.,
м
25 февраля, чт
чт2523:00−16ююв22881 0.0 102820
02:00−17ююв12902 0.0 102822
05:00−16ююв119062 0.0 102524
08:00−15ю119081 0.0 102420
11:00−11ссз118233 0.0 1023235
14:00−7ссз118226 0.0 1019288
17:00−8в1290100 0.0 1018122
20:00−9вюв2289100 0.0 101631
26 февраля, пт
пт2623:00−9вюв1187100 0.0 101321
02:00−10ююв0187100 0.0 101221
05:00−13зюз1197100 0.0 101324
08:00−13зсз1197100 0.0 101525
11:00−11сз2392100 0.2 1016281
14:00−10сз3493100 1.2 1015422
17:00−10сз3593100 0.7 1016477
20:00−13з2491100 0.8 1018171
27 февраля, сб
сб2723:00−15з2892100 0.1 1021394
02:00−16зсз51193100 0.3 1024849
05:00−18зсз41083100 0.2 1028655
08:00−21з3108993 0.2 1034286
11:00−18зсз368150 0.0 1035614
14:00−16сз456854 0.0 10351357
17:00−17зсз2472100 0.0 10351033
20:00−22ю128377 0.1 103820
28 февраля, вс
вс2823:00−23ю22834 0.0 104020
02:00−23ю118749 0.0 104120
05:00−22ююв0186100 0.0 104120
08:00−23вюв1190100 0.0 104220
11:00−17ссз0183100 0.0 1040335
14:00−15сз228299 0.1 1038614
17:00−16ссз128798 0.1 1038330
20:00−21ю229262 0.1 104120
1 марта, пн
пн123:00−22ю228716 0.0 104220
02:00−21ююв118558 0.0 104220
05:00−24ююз118642 0.0 104220
08:00−25ююз118821 0.0 104220
11:00−17зсз12800 0.0 1039337
14:00−14ссз218125 0.0 1036457
17:00−15с118984 0.0 1033262
20:00−20ю229066 0.0 103420